O3B FM9 (40351 NORAD) Tracking and Keplerian Element Data

This shows tracking and keplerian element data for the satellite.

Feedback or suggestion? Click here.




ElementValue
Catalog40351
NameO3B FM9
Epoch Orbit7127
Epoch Day315.74111582
Epoch Year2018
RAAN20.074
Inclination0.0417
Eccentricity0.0002618
Argument of Perigee210.2826
Mean Anonmoly129.6257
Mean Motion5.00114777
Decay Rate-2.8E-07
L11 40351U 14083D 18315.74111582 -.00000028 00000-0 00000-0 0 9997
L22 40351 0.0417 20.0740 0002618 210.2826 129.6257 5.00114777 71279

Live tracking and technical data element details for O3B FM9 (NORAD 40351). O3B FM9 can be tracked NOW for your location showing map with azimuth and elevation plus other details from your city location.

Track the satellite on the map from your city or location and see movement details for azimuth, elevation, latitude, longitude, range, height, and movement on the map or in text.







IsCatalogInMostPopularTable: catalog: 40351, numindb: 117
Update: records affected: 1



GetName: 40351 O3B FM9

Hit Count: updated at: Mon, 12 Nov 2018 21:49:59 GMT